GW2092 Weather Reports


time (UTC)temp
C
wind
direction
speed
KPH
gust
KPH
rain 1hr
cm
rain 24hr
cm
rain mn
cm
humidity
%
barometer
mb
20260905130050 24 0 0.0 0.0 0.00 0.00 0.00 79 1016.0
20260905124547 23 0 0.0 0.0 0.00 0.00 0.00 83 1016.0
20260905123048 22 0 0.0 0.0 0.00 0.00 0.00 84 1015.8
20260905121557 22 0 0.0 0.0 0.00 0.00 0.00 85 1016.0
20260905120046 22 0 0.0 0.0 0.00 0.00 0.00 85 1016.0
20260905114546 22 0 0.0 0.0 0.00 0.00 0.00 85 1015.8
20260905113104 22 0 0.0 0.0 0.00 0.00 0.00 84 1015.7
20260905111551 22 0 0.0 0.0 0.00 0.00 0.00 84 1015.6
20260905110046 22 0 0.0 0.0 0.00 0.00 0.00 84 1015.6
20260905104545 22 0 0.0 0.0 0.00 0.00 0.00 83 1015.6
20260905103059 22 0 0.0 0.0 0.00 0.00 0.00 82 1015.4
20260905101552 22 0 0.0 0.0 0.00 0.00 0.00 83 1015.5
20260905094545 22 0 0.0 0.0 0.00 0.00 0.00 81 1015.4
20260905093054 22 0 0.0 0.0 0.00 0.00 0.00 81 1015.4
20260905091546 23 0 0.0 0.0 0.00 0.00 0.00 80 1015.3
20260905090054 23 0 0.0 0.0 0.00 0.00 0.00 79 1015.3
20260905084556 23 0 0.0 0.0 0.00 0.00 0.00 79 1015.1
20260905083047 23 0 0.0 0.0 0.00 0.00 0.00 78 1015.1
20260905081557 24 0 0.0 0.0 0.00 0.00 0.00 77 1015.0
20260905080054 24 0 0.0 0.0 0.00 0.00 0.00 75 1015.1
20260905074554 25 0 0.0 0.0 0.00 0.00 0.00 73 1015.0
20260905073059 25 0 0.0 0.0 0.00 0.00 0.00 74 1015.1
20260905071557 25 0 0.0 0.0 0.00 0.00 0.00 73 1015.2
20260905070055 25 0 0.0 0.0 0.00 0.00 0.00 72 1015.2
20260905064554 26 0 0.0 0.0 0.00 0.00 0.00 70 1015.4
20260905063048 26 0 0.0 0.0 0.00 0.00 0.00 70 1015.3
20260905061607 26 0 0.0 0.0 0.00 0.00 0.00 71 1015.3
20260905060100 25 0 0.0 0.0 0.00 0.00 0.00 71 1015.0
20260905054554 26 0 0.0 0.0 0.00 0.00 0.00 71 1015.1
20260905053047 26 0 0.0 0.0 0.00 0.00 0.00 70 1015.3
20260905051545 26 0 0.0 0.0 0.00 0.00 0.00 70 1015.4
20260905050044 26 0 0.0 0.0 0.00 0.00 0.00 69 1015.4
20260905044549 26 0 0.0 0.0 0.00 0.00 0.00 68 1015.6
20260905043056 27 0 0.0 0.0 0.00 0.00 0.00 66 1015.5
20260905041544 27 0 0.0 0.0 0.00 0.00 0.00 64 1015.5
20260905040054 28 0 0.0 0.0 0.00 0.00 0.00 63 1015.5
20260905034551 28 0 0.0 0.0 0.00 0.00 0.00 63 1015.4
20260905033050 28 0 0.0 0.0 0.00 0.00 0.00 62 1015.3
20260905031549 28 0 0.0 0.0 0.00 0.00 0.00 61 1015.1
20260905024547 28 0 0.0 0.0 0.00 0.00 0.00 61 1014.7
20260905023056 28 0 0.0 0.0 0.00 0.00 0.00 60 1014.3
20260905021555 28 0 0.0 0.0 0.00 0.00 0.00 61 1014.1
20260905020103 28 0 0.0 0.0 0.00 0.00 0.00 59 1013.9
20260905014546 28 0 0.0 0.0 0.00 0.00 0.00 58 1013.8
20260905013108 29 0 0.0 0.0 0.00 0.00 0.00 56 1013.6
20260905011628 30 0 0.0 0.0 0.00 0.00 0.00 54 1013.6
20260905010049 31 0 0.0 0.0 0.00 0.00 0.00 52 1013.6
20260905004549 32 0 0.0 0.0 0.00 0.00 0.00 50 1013.5
20260905003053 33 0 0.0 0.0 0.00 0.00 0.00 46 1013.3
20260905001557 34 0 0.0 1.6 0.00 0.00 0.00 44 1013.3
20260905000047 35 0 0.0 1.6 0.00 0.00 0.00 43 1013.4
20260904234546 35 0 0.0 6.4 0.00 0.00 0.00 42 1013.4
20260904233053 35 0 0.0 6.4 0.00 0.00 0.00 41 1013.4
20260904231552 35 0 0.0 4.8 0.00 0.00 0.00 41 1013.4
20260904230048 36 193 1.6 8.0 0.00 0.00 0.00 39 1013.4
20260904224547 37 0 0.0 3.2 0.00 0.00 0.00 37 1013.4
20260904223053 37 0 0.0 8.0 0.00 0.00 0.00 38 1013.6
20260904221554 38 137 0.0 12.9 0.00 0.00 0.00 36 1013.6
20260904220050 39 0 0.0 8.0 0.00 0.00 0.00 35 1013.6
20260904214555 38 240 0.0 9.7 0.00 0.00 0.00 36 1013.7
20260904213057 38 134 0.0 6.4 0.00 0.00 0.00 35 1013.9
20260904211550 38 0 1.6 6.4 0.00 0.00 0.00 36 1013.9
20260904210054 38 0 0.0 9.7 0.00 0.00 0.00 38 1014.0
20260904204554 38 0 1.6 8.0 0.00 0.00 0.00 39 1014.3
20260904203058 38 0 0.0 6.4 0.00 0.00 0.00 39 1014.4
20260904201545 37 0 0.0 8.0 0.00 0.00 0.00 40 1014.5
20260904200053 38 196 0.0 6.4 0.00 0.00 0.00 40 1015.0
20260904194607 37 0 1.6 9.7 0.00 0.00 0.00 41 1015.0
20260904193046 37 105 3.2 9.7 0.00 0.00 0.00 43 1015.1
20260904191553 37 207 1.6 11.3 0.00 0.00 0.00 42 1015.3
20260904190053 37 140 1.6 9.7 0.00 0.00 0.00 43 1015.5
20260904184548 37 0 1.6 9.7 0.00 0.00 0.00 43 1015.7
20260904183112 37 0 3.2 11.3 0.00 0.00 0.00 42 1015.9
20260904181606 37 198 0.0 6.4 0.00 0.00 0.00 43 1016.2
20260904180049 36 208 1.6 11.3 0.00 0.00 0.00 44 1016.2
20260904174601 36 247 0.0 8.0 0.00 0.00 0.00 47 1016.4
20260904173054 36 227 1.6 8.0 0.00 0.00 0.00 46 1016.5
20260904171547 36 215 1.6 9.7 0.00 0.00 0.00 48 1016.8
20260904170045 35 190 0.0 6.4 0.00 0.00 0.00 49 1016.9
20260904164547 35 163 0.0 9.7 0.00 0.00 0.00 51 1017.2
20260904163051 34 124 1.6 8.0 0.00 0.00 0.00 52 1017.2
20260904161546 33 211 0.0 6.4 0.00 0.00 0.00 55 1017.2
20260904160045 33 238 0.0 4.8 0.00 0.00 0.00 54 1017.2
20260904154548 33 0 1.6 6.4 0.00 0.00 0.00 56 1017.2
20260904153053 32 0 1.6 6.4 0.00 0.00 0.00 59 1017.1
20260904151547 32 181 0.0 6.4 0.00 0.00 0.00 61 1017.2
20260904150045 31 189 0.0 4.8 0.00 0.00 0.00 62 1017.3
20260904144555 31 193 0.0 8.0 0.00 0.00 0.00 64 1017.2
20260904143058 30 0 0.0 4.8 0.00 0.00 0.00 66 1017.3
20260904141550 29 0 0.0 6.4 0.00 0.00 0.00 67 1017.3
20260904140047 28 0 0.0 3.2 0.00 0.00 0.00 70 1017.2
20260904134600 27 0 0.0 1.6 0.00 0.00 0.00 72 1017.0
20260904133048 26 0 0.0 0.0 0.00 0.00 0.00 75 1017.0
20260904131544 25 0 0.0 1.6 0.00 0.00 0.00 76 1016.9